Content
SEND FEEDBACK

Daily
Averages
Monthly
Summary
United States of America

ROLLA - MISSOURI ST, MISSOURI


Home > North America > United States > Missouri
Elevation: 1200 feet     Latitude: 37 57N     Longitude: 091 46W

WEATHER
 
SELECT A DAY
Number of Records: 201,225;   Date Range: 1/1/95 - 7/7/14
 
SHARE

PRINT THIS DATA

[ ← Previous Day ]
WEATHER ALMANAC - JANUARY 9, 2013
[ Next Day → ]
[ °C ]   °F
Weather ElementAverageHighLow
Temperature44 °F55 °F (1:53 pm)37.4 °F (4:44 am)
Dewpoint38.2 °F44.1 °F (1:53 am)28.9 °F (8:53 pm)
Humidity82.9 %100 % (4:30 am)40 % (2:53 pm)
Barometer30.31 in30.42 in (8:53 pm)30.18 in (12:10 am)
Wind Speed6.1 mph12.7 mph (12:10 am)
Weather ElementAverage
Visibility5.9 mi
Wind DirectionSSE (169.3 °)

Weather ElementTotal
Precipitation---
Heating Degree Days18.8 (Base 65)
Averaged from 43 records on January 9, 2013
WEATHER CONDITIONS BREAKOUT
WIND DIRECTION BREAKOUT
WEATHER BY HOUR - JANUARY 9, 2013
[ °C ]   °F
Local TimeTemperatureDewpointHumidityBarometerVisibilityWind DirectionWind SpeedGust SpeedPrecipitationEventsConditions
12:10 AM46.4 °F42.8 °F87 %30.18 in10.0 miSW (220°)12.7 mph0.00 inRainLight Rain
12:21 AM46.4 °F42.8 °F87 %30.19 in10.0 miSW (230°)9.2 mph0.00 inOvercast
12:53 AM46.0 °F43.0 °F89 %30.21 in10.0 miWSW (240°)9.2 mph0.00 inOvercast
1:09 AM46.4 °F42.8 °F87 %30.21 in10.0 miWSW (240°)9.2 mphOvercast
1:53 AM45.0 °F44.1 °F97 %30.22 in9.0 miSSW (210°)8.1 mph0.00 inRainLight Rain
2:53 AM45.0 °F44.1 °F97 %30.24 in8.0 miSW (220°)8.1 mph0.00 inOvercast
3:53 AM44.1 °F43.0 °F96 %30.25 in7.0 miSW (230°)6.9 mphMostly Cloudy
4:30 AM42.8 °F42.8 °F100 %30.25 in1.5 miWSW (240°)5.8 mphPartly Cloudy
4:33 AM41.0 °F41.0 °F100 %30.25 in0.8 miSW (230°)5.8 mphPartly Cloudy
4:35 AM39.2 °F39.2 °F100 %30.25 in0.5 miWSW (240°)5.8 mphFogFog
4:44 AM37.4 °F37.4 °F100 %30.25 in0.2 miWSW (240°)4.6 mphFogFog
4:53 AM37.9 °F37.9 °F100 %30.27 in0.2 miSW (230°)3.5 mphFogFog
5:10 AM37.4 °F37.4 °F100 %30.26 in0.2 miWest (260°)5.8 mphFogFog
5:18 AM39.2 °F39.2 °F100 %30.26 in0.2 miWest (270°)5.8 mphFogFog
5:25 AM39.2 °F39.2 °F100 %30.26 in0.5 miWNW (290°)6.9 mphFogFog
5:30 AM42.8 °F41.0 °F93 %30.26 in1.0 miWNW (290°)8.1 mphMist
5:32 AM42.8 °F41.0 °F93 %30.26 in2.0 miWNW (290°)6.9 mphScattered Clouds
5:40 AM42.8 °F42.8 °F100 %30.26 in6.0 miWNW (290°)6.9 mphScattered Clouds
5:53 AM42.1 °F42.1 °F100 %30.28 in5.0 miWNW (300°)6.9 mphPartly Cloudy
6:26 AM42.8 °F42.8 °F100 %30.29 in1.5 miCalmClear
6:29 AM41.0 °F41.0 °F100 %30.30 in0.8 miCalmMist
6:31 AM41.0 °F39.2 °F93 %30.30 in0.5 miCalmFogFog
6:53 AM42.1 °F42.1 °F100 %30.33 in0.5 miWNW (300°)3.5 mphFogFog
7:16 AM39.2 °F39.2 °F100 %30.32 in1.0 miNW (310°)5.8 mphMist
7:19 AM39.2 °F39.2 °F100 %30.32 in3.0 miNW (310°)6.9 mphMostly Cloudy
7:28 AM39.2 °F39.2 °F100 %30.32 in4.0 miNW (310°)5.8 mphScattered Clouds
7:53 AM39.9 °F39.0 °F97 %30.35 in5.0 miNW (320°)4.6 mphClear
8:53 AM43.0 °F41.0 °F93 %30.38 in7.0 miNNW (330°)3.5 mphClear
9:53 AM45.0 °F41.0 °F86 %30.39 in10.0 miCalmClear
10:53 AM48.9 °F39.9 °F71 %30.40 in10.0 miCalmClear
11:53 AM53.1 °F39.0 °F59 %30.37 in10.0 miNNE (30°)5.8 mphClear
12:53 PM54.0 °F35.1 °F49 %30.37 in10.0 miVariable3.5 mphClear
1:53 PM55.0 °F34.0 °F45 %30.37 in10.0 miNNE (30°)4.6 mphClear
2:53 PM55.0 °F30.9 °F40 %30.38 in10.0 miNorth (10°)5.8 mphClear
3:53 PM53.1 °F34.0 °F48 %30.38 in10.0 miENE (60°)8.1 mphClear
4:53 PM48.9 °F32.0 °F52 %30.40 in10.0 miENE (60°)5.8 mphClear
5:53 PM45.0 °F30.9 °F58 %30.41 in10.0 miNNE (30°)4.6 mphClear
6:53 PM43.0 °F30.9 °F62 %30.41 in10.0 miNE (50°)5.8 mphClear
7:53 PM44.1 °F30.0 °F58 %30.41 in10.0 miENE (60°)9.2 mphClear
8:53 PM45.0 °F28.9 °F53 %30.42 in10.0 miENE (70°)10.4 mphClear
9:53 PM44.1 °F28.9 °F55 %30.40 in10.0 miEast (80°)11.5 mphClear
10:53 PM43.0 °F28.9 °F58 %30.39 in10.0 miEast (80°)10.4 mphClear
11:53 PM43.0 °F30.0 °F60 %30.38 in10.0 miEast (80°)11.5 mphClear
Hourly data recorded from KVIH, located miles away from Rolla - Missouri ST, Missouri







STORIES FROM OUR PARTNERS